Track IRIDIUM 129 now! 10-day predictions IRIDIUM 129 is classified as:
1 42958U 17061D 23079.76804932 .00000439 00000-0 14964-3 0 9996 2 42958 86.4025 160.2642 0002150 92.1923 267.9519 14.34217092285030